When you browse on this site, cookies collect data to enhance your experience and personalize the content and advertising you see.
Visit our Privacy Policy to learn more. By continuing to use the site, you agree to this use of cookies and data.
  • In Österreich
  • Länderverzeichnis
  • Für 7 Tage
  • Wassertemperatur
  • Satellitenkarten
  • Wetterkarte
  • News
  • Widgets
  • user-avatar
    Anmelden

    Stündliche Wetter Rojewo

    Heute, 21 Februar, Donnerstag

    Zeit Temperatur Niederschläge Wind Luftdruck Luftfeuchtigkeit
    00:00 +6°C° 0 mm 2 m/S 762 mmHg 87%
    01:00 +5°C° 0 mm 2 m/S 762 mmHg 91%
    02:00 +5°C° 0 mm 2 m/S 762 mmHg 89%
    03:00 +4°C° 0 mm 3 m/S 761 mmHg 88%
    04:00 +4°C° 0 mm 3 m/S 761 mmHg 86%
    05:00 +4°C° 0 mm 3 m/S 761 mmHg 86%
    06:00 +4°C° 0 mm 3 m/S 761 mmHg 86%
    07:00 +5°C° 0 mm 4 m/S 761 mmHg 84%
    08:00 +5°C° 0.2 mm 4 m/S 761 mmHg 84%
    09:00 +5°C° 0.2 mm 4 m/S 761 mmHg 83%
    10:00 +6°C° 0.2 mm 4 m/S 761 mmHg 82%
    11:00 +6°C° 0.2 mm 5 m/S 761 mmHg 80%
    12:00 +7°C° 0.2 mm 5 m/S 761 mmHg 77%
    13:00 +7°C° 0 mm 6 m/S 761 mmHg 77%
    14:00 +7°C° 0.1 mm 5 m/S 760 mmHg 77%
    15:00 +7°C° 0.1 mm 5 m/S 760 mmHg 78%
    16:00 +8°C° 0.1 mm 4 m/S 760 mmHg 78%
    17:00 +8°C° 0.2 mm 4 m/S 760 mmHg 81%
    18:00 +7°C° 0.2 mm 5 m/S 760 mmHg 83%
    19:00 +7°C° 0.2 mm 5 m/S 760 mmHg 86%
    20:00 +7°C° 0.3 mm 5 m/S 760 mmHg 87%
    21:00 +7°C° 0.3 mm 4 m/S 760 mmHg 89%
    22:00 +7°C° 0.3 mm 4 m/S 760 mmHg 90%
    23:00 +7°C° 0.2 mm 4 m/S 761 mmHg 90%

    Morgen, 22 Februar, Freitag

    Zeit Temperatur Niederschläge Wind Luftdruck Luftfeuchtigkeit
    00:00 +7°C° 0.2 mm 4 m/S 761 mmHg 90%
    01:00 +6°C° 0.2 mm 5 m/S 762 mmHg 89%
    02:00 +5°C° 0.1 mm 5 m/S 763 mmHg 86%
    03:00 +3°C° 0.1 mm 5 m/S 763 mmHg 83%
    04:00 +2°C° 0.1 mm 6 m/S 764 mmHg 80%
    05:00 +1°C° 0 mm 5 m/S 766 mmHg 78%
    06:00 0°C° 0 mm 5 m/S 767 mmHg 75%
    07:00 -1°C° 0 mm 5 m/S 768 mmHg 72%
    08:00 -1°C° 0 mm 5 m/S 769 mmHg 65%
    09:00 -1°C° 0 mm 5 m/S 771 mmHg 58%
    10:00 -1°C° 0 mm 4 m/S 772 mmHg 51%
    11:00 0°C° 0 mm 4 m/S 772 mmHg 47%
    12:00 0°C° 0 mm 4 m/S 773 mmHg 44%
    13:00 +1°C° 0 mm 4 m/S 774 mmHg 41%
    14:00 +2°C° 0 mm 3 m/S 774 mmHg 40%
    15:00 +1°C° 0 mm 3 m/S 774 mmHg 40%
    16:00 +1°C° 0 mm 3 m/S 775 mmHg 40%
    17:00 0°C° 0 mm 3 m/S 775 mmHg 44%
    18:00 -1°C° 0 mm 2 m/S 776 mmHg 48%
    19:00 -2°C° 0 mm 2 m/S 776 mmHg 52%
    20:00 -2°C° 0 mm 2 m/S 776 mmHg 52%
    21:00 -2°C° 0 mm 2 m/S 777 mmHg 52%
    22:00 -2°C° 0 mm 2 m/S 777 mmHg 52%
    23:00 -2°C° 0 mm 2 m/S 777 mmHg 51%

    übermorgen, 23 Februar, Samstag

    Zeit Temperatur Niederschläge Wind Luftdruck Luftfeuchtigkeit
    00:00 -3°C° 0 mm 2 m/S 777 mmHg 51%
    01:00 -3°C° 0 mm 2 m/S 777 mmHg 50%
    02:00 -3°C° 0 mm 2 m/S 777 mmHg 51%
    03:00 -3°C° 0 mm 2 m/S 777 mmHg 51%
    04:00 -3°C° 0 mm 2 m/S 777 mmHg 51%
    05:00 -3°C° 0 mm 2 m/S 777 mmHg 51%
    06:00 -3°C° 0 mm 2 m/S 777 mmHg 51%
    07:00 -1°C° 0 mm 1 m/S 777 mmHg 51%
    08:00 0°C° 0 mm 1 m/S 777 mmHg 46%
    09:00 -1°C° 0 mm 2 m/S 778 mmHg 41%
    10:00 +1°C° 0 mm 2 m/S 778 mmHg 35%
    11:00 +1°C° 0 mm 2 m/S 777 mmHg 32%
    12:00 +2°C° 0 mm 2 m/S 777 mmHg 30%
    13:00 +3°C° 0 mm 2 m/S 777 mmHg 27%
    14:00 +3°C° 0 mm 2 m/S 776 mmHg 28%
    15:00 +4°C° 0 mm 1 m/S 776 mmHg 28%
    16:00 +4°C° 0 mm 1 m/S 776 mmHg 29%
    17:00 +3°C° 0 mm 1 m/S 776 mmHg 32%
    18:00 +2°C° 0 mm 1 m/S 776 mmHg 35%
    19:00 +1°C° 0 mm 1 m/S 775 mmHg 37%
    20:00 +1°C° 0 mm 1 m/S 775 mmHg 38%
    21:00 +1°C° 0 mm 1 m/S 775 mmHg 38%
    22:00 +1°C° 0 mm 1 m/S 775 mmHg 39%
    23:00 +1°C° 0 mm 1 m/S 775 mmHg 38%

    24 Februar, Sonntag

    Zeit Temperatur Niederschläge Wind Luftdruck Luftfeuchtigkeit
    00:00 +1°C° 0 mm 1 m/S 775 mmHg 38%
    01:00 +1°C° 0 mm 1 m/S 775 mmHg 38%
    02:00 +1°C° 0 mm 1 m/S 774 mmHg 38%
    03:00 +1°C° 0 mm 1 m/S 774 mmHg 38%
    04:00 +1°C° 0 mm 1 m/S 774 mmHg 37%
    05:00 +1°C° 0 mm 1 m/S 774 mmHg 38%
    06:00 +1°C° 0 mm 1 m/S 774 mmHg 38%
    07:00 +1°C° 0 mm 1 m/S 774 mmHg 38%
    08:00 +1°C° 0 mm 2 m/S 774 mmHg 36%
    09:00 +3°C° 0 mm 2 m/S 774 mmHg 35%
    10:00 +4°C° 0 mm 2 m/S 774 mmHg 33%
    11:00 +5°C° 0 mm 2 m/S 774 mmHg 34%
    12:00 +5°C° 0 mm 3 m/S 773 mmHg 35%
    13:00 +8°C° 0 mm 3 m/S 773 mmHg 35%
    14:00 +8°C° 0 mm 3 m/S 773 mmHg 40%
    15:00 +8°C° 0 mm 2 m/S 773 mmHg 44%
    16:00 +8°C° 0 mm 2 m/S 773 mmHg 48%
    17:00 +6°C° 0 mm 2 m/S 773 mmHg 54%
    18:00 +5°C° 0 mm 2 m/S 773 mmHg 59%
    19:00 +4°C° 0 mm 2 m/S 773 mmHg 65%
    20:00 +4°C° 0 mm 2 m/S 773 mmHg 67%
    21:00 +3°C° 0 mm 2 m/S 773 mmHg 70%
    22:00 +3°C° 0 mm 2 m/S 774 mmHg 72%
    23:00 +3°C° 0 mm 2 m/S 774 mmHg 74%

    25 Februar, Montag

    Zeit Temperatur Niederschläge Wind Luftdruck Luftfeuchtigkeit
    00:00 +2°C° 0 mm 2 m/S 774 mmHg 76%
    01:00 +2°C° 0 mm 2 m/S 774 mmHg 78%
    02:00 +2°C° 0 mm 2 m/S 774 mmHg 78%
    03:00 +2°C° 0 mm 2 m/S 774 mmHg 79%
    04:00 +2°C° 0 mm 2 m/S 774 mmHg 79%
    05:00 +2°C° 0 mm 2 m/S 774 mmHg 79%
    06:00 +1°C° 0 mm 2 m/S 774 mmHg 80%
    07:00 +1°C° 0 mm 2 m/S 774 mmHg 80%
    08:00 +3°C° 0 mm 2 m/S 774 mmHg 74%
    09:00 +4°C° 0 mm 2 m/S 774 mmHg 67%
    10:00 +6°C° 0 mm 2 m/S 774 mmHg 61%
    11:00 +8°C° 0 mm 2 m/S 774 mmHg 57%
    12:00 +9°C° 0 mm 2 m/S 774 mmHg 54%
    13:00 +12°C° 0 mm 2 m/S 774 mmHg 50%
    14:00 +12°C° 0 mm 2 m/S 773 mmHg 52%
    15:00 +12°C° 0 mm 2 m/S 773 mmHg 53%
    16:00 +12°C° 0 mm 2 m/S 773 mmHg 55%
    17:00 +10°C° 0 mm 2 m/S 772 mmHg 61%
    18:00 +8°C° 0 mm 2 m/S 772 mmHg 66%
    19:00 +7°C° 0 mm 2 m/S 772 mmHg 72%
    20:00 +6°C° 0 mm 2 m/S 772 mmHg 73%
    21:00 +6°C° 0 mm 2 m/S 772 mmHg 75%
    22:00 +6°C° 0 mm 2 m/S 772 mmHg 77%
    23:00 +5°C° 0 mm 2 m/S 771 mmHg 79%

    26 Februar, Dienstag

    Zeit Temperatur Niederschläge Wind Luftdruck Luftfeuchtigkeit
    00:00 +5°C° 0 mm 2 m/S 771 mmHg 81%
    01:00 +5°C° 0 mm 2 m/S 771 mmHg 83%
    02:00 +3°C° 0 mm 3 m/S 770 mmHg 84%
    03:00 +3°C° 0 mm 3 m/S 770 mmHg 86%
    04:00 +3°C° 0 mm 3 m/S 769 mmHg 87%
    05:00 +3°C° 0 mm 3 m/S 769 mmHg 87%
    06:00 +3°C° 0 mm 3 m/S 768 mmHg 86%
    07:00 +2°C° 0 mm 3 m/S 768 mmHg 85%
    08:00 +4°C° 0 mm 3 m/S 768 mmHg 76%
    09:00 +5°C° 0 mm 4 m/S 768 mmHg 67%
    10:00 +6°C° 0 mm 4 m/S 768 mmHg 58%
    11:00 +8°C° 0 mm 4 m/S 767 mmHg 58%
    12:00 +10°C° 0 mm 4 m/S 767 mmHg 57%
    13:00 +12°C° 0 mm 5 m/S 767 mmHg 57%
    14:00 +12°C° 0 mm 5 m/S 766 mmHg 59%
    15:00 +12°C° 0 mm 5 m/S 766 mmHg 62%
    16:00 +12°C° 0 mm 5 m/S 766 mmHg 64%
    17:00 +11°C° 0 mm 4 m/S 766 mmHg 71%
    18:00 +8°C° 0 mm 4 m/S 766 mmHg 78%
    19:00 +8°C° 0 mm 3 m/S 767 mmHg 85%
    20:00 +8°C° 0 mm 3 m/S 767 mmHg 86%
    21:00 +7°C° 0 mm 3 m/S 767 mmHg 88%
    22:00 +7°C° 0 mm 3 m/S 767 mmHg 89%
    23:00 +6°C° 0 mm 2 m/S 767 mmHg 91%
    Mehr zeigen